This is the latest recevied weather packets stored in our database for station/object DB7GV-8. If no packets are shown the sender has not sent any weather packets the latest 10 day(s).
| Time | Temp. | Humidity | Pressure | Rain* | Wind** | Luminosity | Snow |
|---|---|---|---|---|---|---|---|
| 1777426101 | 13.33° C | 50% | 1017.1 hPa | - | - | - | - |
| 1777425195 | 13.89° C | 51% | 1017.1 hPa | - | - | - | - |
| 1777424290 | 13.33° C | 59% | 1017.1 hPa | - | - | - | - |
| 1777423385 | 13.33° C | 64% | 1017.1 hPa | - | - | - | - |
| 1777422479 | 13.33° C | 66% | 1017 hPa | - | - | - | - |
| 1777421574 | 13.33° C | 67% | 1017.1 hPa | - | - | - | - |
| 1777420668 | 13.33° C | 69% | 1017.2 hPa | - | - | - | - |
| 1777419763 | 13.33° C | 71% | 1017.3 hPa | - | - | - | - |
| 1777418858 | 13.33° C | 72% | 1017.4 hPa | - | - | - | - |
| 1777417951 | 13.33° C | 71% | 1017.4 hPa | - | - | - | - |
| 1777417046 | 13.33° C | 70% | 1017.4 hPa | - | - | - | - |
| 1777416141 | 13.89° C | 69% | 1017.5 hPa | - | - | - | - |
| 1777415236 | 13.89° C | 68% | 1017.6 hPa | - | - | - | - |
| 1777414332 | 13.89° C | 68% | 1017.5 hPa | - | - | - | - |
| 1777413425 | 13.89° C | 67% | 1017.5 hPa | - | - | - | - |
| 1777412520 | 13.89° C | 66% | 1017.6 hPa | - | - | - | - |
| 1777411615 | 14.44° C | 65% | 1017.5 hPa | - | - | - | - |
| 1777410708 | 14.44° C | 64% | 1017.4 hPa | - | - | - | - |
| 1777409803 | 14.44° C | 62% | 1017.3 hPa | - | - | - | - |
| 1777407992 | 15° C | 58% | 1017.3 hPa | - | - | - | - |
| 1777407087 | 15° C | 56% | 1017.2 hPa | - | - | - | - |
| 1777406182 | 15° C | 54% | 1017.1 hPa | - | - | - | - |
| 1777405276 | 15.56° C | 53% | 1017.1 hPa | - | - | - | - |
| 1777404370 | 16.11° C | 52% | 1016.9 hPa | - | - | - | - |
| 1777403465 | 16.67° C | 50% | 1016.8 hPa | - | - | - | - |
* Rain since midnight (hover to see other rain measurements)
** Current wind speed in m/s (hover to see current wind gust speed)